• In Denmark
  • List of Countries
  • For 7 days
  • Water Temperature
  • Satellite Maps
  • Weather Map
  • Weather Widgets
  • user-avatar
    Login

    Hourly Weather Kanye

    Today, 21 August, Tuesday

    Time Temperature Precipitation Wind Pressure Humidity
    00:00 +19°C° 0 mm 2 mps 651 mmHg 24%
    01:00 +19°C° 0 mm 2 mps 651 mmHg 25%
    02:00 +18°C° 0 mm 3 mps 651 mmHg 26%
    03:00 +17°C° 0 mm 2 mps 651 mmHg 28%
    04:00 +16°C° 0 mm 2 mps 651 mmHg 30%
    05:00 +16°C° 0 mm 1 mps 650 mmHg 32%
    06:00 +16°C° 0 mm 1 mps 651 mmHg 31%
    07:00 +18°C° 0 mm 1 mps 651 mmHg 29%
    08:00 +19°C° 0 mm 1 mps 652 mmHg 28%
    09:00 +21°C° 0 mm 3 mps 652 mmHg 24%
    10:00 +25°C° 0 mm 5 mps 653 mmHg 20%
    11:00 +28°C° 0 mm 6 mps 654 mmHg 16%
    12:00 +29°C° 0 mm 6 mps 654 mmHg 15%
    13:00 +30°C° 0 mm 6 mps 653 mmHg 14%
    14:00 +32°C° 0 mm 6 mps 653 mmHg 12%
    15:00 +32°C° 0 mm 5 mps 653 mmHg 13%
    16:00 +30°C° 0 mm 5 mps 652 mmHg 13%
    17:00 +30°C° 0 mm 4 mps 652 mmHg 13%
    18:00 +28°C° 0 mm 4 mps 652 mmHg 15%
    19:00 +26°C° 0 mm 3 mps 651 mmHg 17%
    20:00 +24°C° 0 mm 2 mps 651 mmHg 19%
    21:00 +23°C° 0 mm 2 mps 651 mmHg 19%
    22:00 +22°C° 0 mm 3 mps 652 mmHg 20%
    23:00 +21°C° 0 mm 3 mps 652 mmHg 20%

    Tomorrow, 22 August, Wednesday

    Time Temperature Precipitation Wind Pressure Humidity
    00:00 +20°C° 0 mm 3 mps 651 mmHg 21%
    01:00 +19°C° 0 mm 2 mps 651 mmHg 23%
    02:00 +18°C° 0 mm 2 mps 651 mmHg 24%
    03:00 +17°C° 0 mm 2 mps 650 mmHg 25%
    04:00 +18°C° 0 mm 1 mps 650 mmHg 26%
    05:00 +16°C° 0 mm 1 mps 650 mmHg 27%
    06:00 +18°C° 0 mm 1 mps 651 mmHg 26%
    07:00 +19°C° 0 mm 1 mps 651 mmHg 24%
    08:00 +19°C° 0 mm 2 mps 652 mmHg 23%
    09:00 +21°C° 0 mm 3 mps 653 mmHg 20%
    10:00 +23°C° 0 mm 4 mps 654 mmHg 18%
    11:00 +26°C° 0 mm 5 mps 654 mmHg 15%
    12:00 +28°C° 0 mm 6 mps 654 mmHg 14%
    13:00 +29°C° 0 mm 6 mps 653 mmHg 12%
    14:00 +30°C° 0 mm 7 mps 653 mmHg 11%
    15:00 +30°C° 0 mm 7 mps 653 mmHg 11%
    16:00 +30°C° 0 mm 6 mps 652 mmHg 11%
    17:00 +29°C° 0 mm 6 mps 652 mmHg 11%
    18:00 +27°C° 0 mm 5 mps 652 mmHg 13%
    19:00 +24°C° 0 mm 3 mps 651 mmHg 14%
    20:00 +21°C° 0 mm 2 mps 651 mmHg 16%
    21:00 +21°C° 0 mm 2 mps 651 mmHg 17%
    22:00 +20°C° 0 mm 2 mps 652 mmHg 18%
    23:00 +19°C° 0 mm 2 mps 652 mmHg 19%

    Day after tomorrow, 23 August, Thursday

    Time Temperature Precipitation Wind Pressure Humidity
    00:00 +18°C° 0 mm 2 mps 652 mmHg 21%
    01:00 +17°C° 0 mm 2 mps 652 mmHg 22%
    02:00 +16°C° 0 mm 2 mps 651 mmHg 24%
    03:00 +16°C° 0 mm 2 mps 651 mmHg 25%
    04:00 +15°C° 0 mm 2 mps 651 mmHg 25%
    05:00 +15°C° 0 mm 2 mps 651 mmHg 26%
    06:00 +16°C° 0 mm 2 mps 651 mmHg 26%
    07:00 +17°C° 0 mm 2 mps 652 mmHg 27%
    08:00 +17°C° 0 mm 2 mps 652 mmHg 27%
    09:00 +20°C° 0 mm 2 mps 653 mmHg 25%
    10:00 +24°C° 0 mm 3 mps 654 mmHg 23%
    11:00 +26°C° 0 mm 3 mps 654 mmHg 21%
    12:00 +28°C° 0 mm 4 mps 654 mmHg 18%
    13:00 +29°C° 0 mm 4 mps 653 mmHg 15%
    14:00 +30°C° 0 mm 4 mps 653 mmHg 12%
    15:00 +30°C° 0 mm 4 mps 653 mmHg 12%
    16:00 +29°C° 0 mm 5 mps 652 mmHg 12%
    17:00 +29°C° 0 mm 5 mps 652 mmHg 11%
    18:00 +27°C° 0 mm 4 mps 652 mmHg 13%
    19:00 +23°C° 0 mm 4 mps 652 mmHg 15%
    20:00 +21°C° 0 mm 3 mps 652 mmHg 17%
    21:00 +20°C° 0 mm 3 mps 652 mmHg 17%
    22:00 +19°C° 0 mm 3 mps 652 mmHg 18%
    23:00 +18°C° 0 mm 3 mps 652 mmHg 18%

    24 August, Friday

    Time Temperature Precipitation Wind Pressure Humidity
    00:00 +17°C° 0 mm 3 mps 652 mmHg 18%
    01:00 +16°C° 0 mm 2 mps 652 mmHg 18%
    02:00 +15°C° 0 mm 2 mps 651 mmHg 18%
    03:00 +15°C° 0 mm 2 mps 651 mmHg 19%
    04:00 +15°C° 0 mm 2 mps 651 mmHg 19%
    05:00 +14°C° 0 mm 2 mps 651 mmHg 19%
    06:00 +16°C° 0 mm 2 mps 651 mmHg 19%
    07:00 +17°C° 0 mm 2 mps 652 mmHg 18%
    08:00 +18°C° 0 mm 3 mps 653 mmHg 17%
    09:00 +21°C° 0 mm 4 mps 653 mmHg 18%
    10:00 +25°C° 0 mm 5 mps 654 mmHg 18%
    11:00 +28°C° 0 mm 6 mps 654 mmHg 18%
    12:00 +29°C° 0 mm 5 mps 654 mmHg 16%
    13:00 +30°C° 0 mm 5 mps 653 mmHg 14%
    14:00 +32°C° 0 mm 4 mps 653 mmHg 12%
    15:00 +32°C° 0 mm 4 mps 653 mmHg 12%
    16:00 +30°C° 0 mm 3 mps 652 mmHg 12%
    17:00 +30°C° 0 mm 2 mps 652 mmHg 13%
    18:00 +28°C° 0 mm 2 mps 652 mmHg 15%
    19:00 +26°C° 0 mm 2 mps 652 mmHg 17%
    20:00 +24°C° 0 mm 3 mps 651 mmHg 19%
    21:00 +23°C° 0 mm 4 mps 652 mmHg 27%
    22:00 +22°C° 0 mm 5 mps 652 mmHg 35%
    23:00 +21°C° 0 mm 6 mps 652 mmHg 43%

    25 August, Saturday

    Time Temperature Precipitation Wind Pressure Humidity
    00:00 +21°C° 0 mm 6 mps 651 mmHg 49%
    01:00 +20°C° 0 mm 6 mps 651 mmHg 54%
    02:00 +19°C° 0 mm 6 mps 651 mmHg 59%
    03:00 +17°C° 0 mm 6 mps 651 mmHg 62%
    04:00 +17°C° 0 mm 7 mps 650 mmHg 65%
    05:00 +16°C° 0 mm 7 mps 650 mmHg 68%
    06:00 +16°C° 0 mm 7 mps 651 mmHg 68%
    07:00 +17°C° 0 mm 7 mps 651 mmHg 68%
    08:00 +17°C° 0 mm 7 mps 652 mmHg 68%
    09:00 +20°C° 0 mm 7 mps 652 mmHg 57%
    10:00 +22°C° 0 mm 7 mps 653 mmHg 47%
    11:00 +26°C° 0 mm 7 mps 653 mmHg 36%
    12:00 +27°C° 0 mm 7 mps 653 mmHg 30%
    13:00 +29°C° 0 mm 7 mps 652 mmHg 23%
    14:00 +32°C° 0 mm 7 mps 652 mmHg 17%
    15:00 +32°C° 0 mm 7 mps 652 mmHg 16%
    16:00 +32°C° 0 mm 7 mps 651 mmHg 15%
    17:00 +32°C° 0 mm 6 mps 651 mmHg 14%
    18:00 +29°C° 0 mm 5 mps 651 mmHg 16%
    19:00 +27°C° 0 mm 4 mps 650 mmHg 18%
    20:00 +25°C° 0 mm 3 mps 650 mmHg 20%
    21:00 +24°C° 0 mm 3 mps 650 mmHg 21%
    22:00 +24°C° 0 mm 3 mps 650 mmHg 22%
    23:00 +22°C° 0 mm 3 mps 650 mmHg 23%

    26 August, Sunday

    Time Temperature Precipitation Wind Pressure Humidity
    00:00 +22°C° 0 mm 3 mps 649 mmHg 23%
    01:00 +21°C° 0 mm 2 mps 649 mmHg 24%
    02:00 +21°C° 0 mm 2 mps 648 mmHg 25%
    03:00 +21°C° 0 mm 2 mps 649 mmHg 25%
    04:00 +20°C° 0 mm 2 mps 649 mmHg 25%
    05:00 +20°C° 0 mm 2 mps 649 mmHg 26%
    06:00 +20°C° 0 mm 3 mps 650 mmHg 22%
    07:00 +19°C° 0 mm 5 mps 651 mmHg 19%
    08:00 +19°C° 0 mm 6 mps 652 mmHg 16%
    09:00 +19°C° 0 mm 6 mps 652 mmHg 16%
    10:00 +20°C° 0 mm 7 mps 653 mmHg 15%
    11:00 +21°C° 0 mm 7 mps 653 mmHg 15%
    12:00 +21°C° 0 mm 7 mps 653 mmHg 15%
    13:00 +22°C° 0 mm 7 mps 653 mmHg 14%
    14:00 +23°C° 0 mm 7 mps 653 mmHg 14%
    15:00 +22°C° 0 mm 6 mps 653 mmHg 14%
    16:00 +22°C° 0 mm 5 mps 652 mmHg 14%
    17:00 +21°C° 0 mm 5 mps 652 mmHg 14%
    18:00 +21°C° 0 mm 4 mps 653 mmHg 15%
    19:00 +20°C° 0 mm 3 mps 653 mmHg 16%
    20:00 +19°C° 0 mm 2 mps 653 mmHg 18%
    21:00 +17°C° 0 mm 2 mps 653 mmHg 20%
    22:00 +16°C° 0 mm 2 mps 653 mmHg 21%
    23:00 +14°C° 0 mm 3 mps 653 mmHg 23%
    Show more